[[{"header":{"parameterUnit":"m.s-1","parameterCategory":1,"la1":30.2991,"la2":30.254,"lo1":-89.0895,"lo2":-89.0444,"dy":0.0017,"dx":0.0017,"nx":28,"ny":28,"refTime":"2025-12-04T09:00:00:Z","depth":0,"parameterNumber":2,"parameterNumberName":"U-component_of_WINDS"},"data":[0,0,0,0,0,0,0,0,0,0,0,0,0,0,0,0,0,0,0,0,0,0,0,0,0,0,0,0,0,0,0,0,0,0,0,0,0,0,0,0,0,0,0,0,0,0,0,0,0,0,0,0,0,0,0,0,0,0,-4.4232,-4.4232,0,-4.4263,-4.4263,-4.4263,-4.4127,-4.4123,-4.4119,-4.4116,-4.4147,-4.4152,-4.4156,0,0,0,0,0,0,0,0,0,0,0,0,0,-4.4054,-4.4058,-4.4232,-4.4232,-4.4232,-4.4263,-4.4263,-4.4263,-4.4128,-4.4123,-4.4118,-4.4114,-4.4146,-4.4151,-4.4157,0,0,0,0,0,0,0,0,0,0,0,0,0,-4.4113,-4.4059,-4.4232,-4.4169,-4.4163,-4.4262,-4.4263,-4.4263,-4.4129,-4.4123,-4.4117,-4.4112,-4.4144,-4.4151,-4.4157,-4.4319,0,0,-4.4178,-4.4181,0,0,0,0,0,0,0,0,-4.411,-4.4119,-4.4177,-4.4173,-4.4167,-4.4185,-4.4212,-4.4282,-4.4131,-4.4142,-4.4116,-4.4109,-4.4165,-4.4169,-4.4188,-4.432,-4.4321,-4.4179,-4.4183,-4.4186,-4.4188,0,0,0,0,0,0,0,-4.4106,-4.4117,-4.4244,-4.4178,-4.4172,-4.4138,-4.414,-4.4224,-4.4186,-4.4141,-4.4131,-4.4136,-4.4161,-4.4182,-4.4188,-4.4322,-4.4179,-4.4185,-4.4189,-4.4191,-4.4585,-4.4591,0,0,0,0,0,0,-4.411,-4.4115,-4.4243,-4.4245,-4.4123,-4.4146,-4.4148,-4.4185,-4.4185,-4.4179,-4.4141,-4.413,-4.4173,-4.418,-4.4189,-4.4376,-4.4186,-4.4192,-4.4196,-4.4579,-4.4587,-4.4593,0,0,0,0,0,0,-4.4107,-4.4123,-4.4242,-4.4177,-4.419,-4.4156,-4.4198,-4.4189,-4.421,-4.4186,-4.4178,-4.417,-4.4169,-4.4179,-4.4287,-4.4375,-4.4195,-4.4201,-4.4571,-4.4581,-4.459,-4.4753,0,0,0,0,0,0,-4.4102,-4.4122,-4.4184,-4.418,-4.4194,-4.434,-4.4204,-4.4194,-4.4222,-4.4208,-4.4211,-4.4206,-4.4165,-4.4277,-4.4294,-4.4381,-4.4207,-4.4563,-4.4576,-4.4587,-4.4739,-4.4767,-4.479,0,0,0,0,0,-4.4096,-4.4229,-4.4188,-4.4204,-4.427,-4.4346,-4.4354,-4.4304,-4.423,-4.4291,-4.4275,-4.4205,-4.4363,-4.429,-4.4307,-4.4398,-4.4557,-4.4572,-4.4586,-4.4728,-4.4761,-4.4789,0,0,0,0,0,0,-4.4245,-4.4227,-4.4181,-4.4316,-4.4334,-4.4323,-4.4398,-4.4342,-4.438,-4.4365,-4.4302,-4.4303,-4.4422,-4.442,-4.4339,-4.4552,-4.4447,-4.4466,-4.4549,-4.4581,-4.4605,-4.4603,-4.4212,0,0,0,0,0,-4.4293,-4.4357,-4.4338,-4.4459,-4.447,-4.4433,-4.4464,-4.4424,-4.444,-4.4446,-4.4438,-4.4455,-4.4508,-4.4544,-4.4592,-4.4738,-4.4736,-4.4809,-4.4835,-4.4856,-4.4872,-4.4948,-4.4979,-4.4641,-4.464,-4.464,0,0,-4.4394,-4.4392,-4.4436,-4.4488,-4.4497,-4.4563,-4.444,-4.4516,-4.4564,-4.4457,-4.4558,-4.4553,-4.4568,-4.4696,-4.4751,-4.4698,-4.4965,-4.4874,-4.4891,-4.4896,-4.4966,-4.4998,-4.5026,-4.465,-4.4648,-4.4647,0,0,-4.4611,-4.4617,-4.4717,-4.4728,-4.4742,-4.4717,-4.4741,-4.4739,-4.4731,-4.4831,-4.4752,-4.4808,-4.4902,-4.4915,-4.4934,-4.5155,-4.5092,-4.5172,-4.5304,-4.5379,-4.5405,-4.5429,-4.5506,-4.5535,-4.5189,-4.5189,-4.5189,0,-4.4734,-4.4831,-4.4776,-4.4857,-4.4881,-4.4788,-4.4888,-4.4902,-4.4931,-4.495,-4.489,-4.5004,-4.5007,-4.5136,-4.5189,-4.5209,-4.5233,-4.5171,-4.5406,-4.5429,-4.545,-4.5523,-4.5552,-4.5199,-4.5198,-4.5197,-4.5196,0,-4.4981,-4.505,-4.5129,-4.5159,-4.5193,-4.5284,-4.5241,-4.5282,-4.5239,-4.522,-4.5322,-4.5323,-4.5368,-4.5396,-4.5356,-4.5519,-4.5485,-4.5417,-4.5309,-4.5493,-4.556,-4.5588,-4.5212,-4.5209,-4.5206,-4.5204,0,0,-4.5293,-4.529,-4.5321,-4.5332,-4.5341,-4.5392,-4.5478,-4.5522,-4.5557,-4.5581,-4.565,-4.573,-4.5667,-4.5688,-4.5648,-4.5714,-4.5887,-4.5637,-4.5636,-4.5682,-4.6065,-4.6115,-4.6148,-4.5845,-4.5851,-4.5855,-4.6063,0,-4.5504,-4.5651,-4.5603,-4.5751,-4.5812,-4.5724,-4.5798,-4.5811,-4.5795,-4.5844,-4.5826,-4.5884,-4.5796,-4.5809,-4.587,-4.5853,-4.5963,-4.5838,-4.5908,-4.5911,-4.5906,-4.6184,-4.6238,-4.6434,-4.6089,-4.6093,-4.6097,0,-4.5771,-4.5804,-4.5958,-4.5954,-4.5978,-4.6046,-4.6081,-4.613,-4.6143,-4.6126,-4.615,-4.6096,-4.6179,-4.6072,-4.6184,-4.6101,-4.6126,-4.6123,-4.6129,-4.6133,-4.6015,-4.6194,-4.6496,-4.6525,-4.6138,-4.6135,-4.6132,0,-4.5981,-4.6064,-4.6166,-4.6179,-4.6178,-4.6227,-4.6229,-4.6235,-4.6264,-4.6296,-4.6313,-4.6354,-4.6376,-4.6409,-4.6366,-4.6293,-4.6485,-4.6375,-4.6472,-4.6474,-4.6516,-4.6514,-4.6825,-4.6536,-4.6535,-4.6535,-4.6534,0,-4.6221,-4.6319,-4.626,-4.6323,-4.6429,-4.6373,-4.6479,-4.6471,-4.6477,-4.6536,-4.6463,-4.6519,-4.6461,-4.6512,-4.648,-4.6577,-4.6588,-4.6576,-4.6566,-4.6582,-4.6583,-4.6597,-4.6582,-4.6542,-4.6541,-4.6539,-4.6538,0,-4.6473,-4.6439,-4.6544,-4.6534,-4.6533,-4.6612,-4.6602,-4.666,-4.6638,-4.6714,-4.6728,-4.6695,-4.6751,-4.6712,-4.6769,-4.6747,-4.6874,-4.6846,-4.687,-4.6862,-4.696,-4.6951,-4.7291,-4.7332,-4.7018,-4.7021,-4.7023,0,-4.6629,-4.6701,-4.6698,-4.6733,-4.6739,-4.6795,-4.6824,-4.6771,-4.6804,-4.6823,-4.6878,-4.6928,-4.6965,-4.7059,-4.7039,-4.7082,-4.7053,-4.7169,-4.7059,-4.7072,-4.7053,-4.7048,-4.7055,-4.7191,-4.7195,-4.7198,-4.72,0,-4.6907,-4.6886,-4.693,-4.6969,-4.7005,-4.7033,-4.7055,-4.7087,-4.7033,-4.7074,-4.713,-4.7159,-4.7217,-4.7267,-4.7302,-4.7302,-4.7243,-4.7235,-4.726,-4.7276,-4.7286,-4.728,-4.6929,-4.7227,-4.7225,-4.7223,-4.7221,-4.722,-4.7114,-4.7174,-4.7181,-4.7232,-4.7243,-4.7265,-4.7317,-4.7302,-4.7348,-4.739,-4.7356,-4.7424,-4.7432,-4.7473,-4.7481,-4.7533,-4.7485,-4.7521,-4.753,-4.7539,-4.7552,-4.728,-4.7539,-4.7538,-4.7537,-4.7537,-4.7536,0,-4.7388,-4.7387,-4.7435,-4.7467,-4.7508,-4.7448,-4.7468,-4.7506,-4.7566,-4.7579,-4.7617,-4.7681,-4.7729,-4.7713,-4.7755,-4.78,-4.7773,-4.7812,-4.7808,-4.7809,-4.7593,-4.7567,-4.7833,-4.7833,-4.7833,-4.7833,-4.7833,-4.7833,-4.7534,-4.7631,-4.7611,-4.7712,-4.7711,-4.7776,-4.7793,-4.7812,-4.7822,-4.7897,-4.7936,-4.7925,-4.7926,-4.7968,-4.8009,-4.8003,-4.8021,-4.807,-4.8054,-4.7853,-4.7824,-4.7796,-4.7771,-4.8075,-4.8076,-4.8265,-4.8267,-4.8268]},{"header":{"parameterUnit":"m.s-1","parameterCategory":1,"la1":30.2991,"la2":30.254,"lo1":-89.0895,"lo2":-89.0444,"dy":0.0017,"dx":0.0017,"nx":28,"ny":28,"refTime":"2025-12-04T09:00:00:Z","depth":0,"parameterNumber":3,"parameterNumberName":"V-component_of_WINDS"},"data":[0,0,0,0,0,0,0,0,0,0,0,0,0,0,0,0,0,0,0,0,0,0,0,0,0,0,0,0,0,0,0,0,0,0,0,0,0,0,0,0,0,0,0,0,0,0,0,0,0,0,0,0,0,0,0,0,0,0,-0.6469,-0.647,0,-0.6499,-0.65,-0.65,-0.6553,-0.6554,-0.6555,-0.6555,-0.6584,-0.6584,-0.6584,0,0,0,0,0,0,0,0,0,0,0,0,0,-0.6456,-0.6456,-0.6469,-0.647,-0.647,-0.6499,-0.65,-0.65,-0.6552,-0.6554,-0.6555,-0.6556,-0.6585,-0.6584,-0.6584,0,0,0,0,0,0,0,0,0,0,0,0,0,-0.6471,-0.6456,-0.6469,-0.65,-0.6503,-0.6499,-0.65,-0.65,-0.6552,-0.6554,-0.6555,-0.6556,-0.6585,-0.6584,-0.6584,-0.6553,0,0,-0.6583,-0.6583,0,0,0,0,0,0,0,0,-0.647,-0.6472,-0.6495,-0.6498,-0.6501,-0.6524,-0.6506,-0.6518,-0.6552,-0.6533,-0.6555,-0.6557,-0.6563,-0.6565,-0.6567,-0.6554,-0.6555,-0.6583,-0.6583,-0.6583,-0.6583,0,0,0,0,0,0,0,-0.6469,-0.6471,-0.6481,-0.6495,-0.6499,-0.6511,-0.6515,-0.6508,-0.6539,-0.6535,-0.6539,-0.6542,-0.6565,-0.6567,-0.6568,-0.6556,-0.6583,-0.6583,-0.6583,-0.6583,-0.6517,-0.6515,0,0,0,0,0,0,-0.6464,-0.6469,-0.648,-0.6482,-0.6489,-0.651,-0.6515,-0.6515,-0.654,-0.6545,-0.6541,-0.6544,-0.6567,-0.6568,-0.6569,-0.6532,-0.6583,-0.6583,-0.6583,-0.6518,-0.6516,-0.6515,0,0,0,0,0,0,-0.6463,-0.6464,-0.6479,-0.6477,-0.648,-0.6509,-0.6509,-0.6515,-0.6517,-0.6544,-0.6549,-0.6537,-0.6568,-0.6569,-0.6556,-0.6534,-0.6583,-0.6583,-0.652,-0.6518,-0.6515,-0.6459,0,0,0,0,0,0,-0.6463,-0.6464,-0.6453,-0.6476,-0.648,-0.6466,-0.6508,-0.6514,-0.6516,-0.6521,-0.6542,-0.6547,-0.6569,-0.6556,-0.6556,-0.6535,-0.6582,-0.6522,-0.6519,-0.6516,-0.6463,-0.6455,-0.6448,0,0,0,0,0,-0.6462,-0.6436,-0.6452,-0.6453,-0.6466,-0.6464,-0.6466,-0.6493,-0.6515,-0.6503,-0.652,-0.6546,-0.6537,-0.6554,-0.6554,-0.6533,-0.6524,-0.652,-0.6516,-0.6466,-0.6457,-0.6448,0,0,0,0,0,0,-0.6408,-0.6439,-0.6457,-0.6438,-0.6448,-0.6473,-0.646,-0.6482,-0.6486,-0.6491,-0.6524,-0.6528,-0.6509,-0.652,-0.6539,-0.6503,-0.6534,-0.653,-0.6496,-0.6487,-0.648,-0.6477,-0.6582,0,0,0,0,0,-0.6394,-0.6391,-0.6418,-0.6398,-0.6402,-0.643,-0.643,-0.645,-0.6462,-0.6466,-0.6482,-0.6492,-0.6491,-0.649,-0.6491,-0.6465,-0.6469,-0.645,-0.6443,-0.6437,-0.6432,-0.6418,-0.6409,-0.6503,-0.6503,-0.6503,0,0,-0.6365,-0.6382,-0.6377,-0.6388,-0.6398,-0.6393,-0.6433,-0.6426,-0.6422,-0.6465,-0.6453,-0.6465,-0.6478,-0.6458,-0.645,-0.6466,-0.6408,-0.6432,-0.6427,-0.6426,-0.6413,-0.6404,-0.6396,-0.65,-0.6501,-0.6501,0,0,-0.6309,-0.6322,-0.6306,-0.6315,-0.633,-0.6349,-0.6345,-0.6366,-0.6376,-0.6364,-0.6396,-0.6392,-0.639,-0.6397,-0.6401,-0.6347,-0.637,-0.6346,-0.6307,-0.6292,-0.6284,-0.6278,-0.6257,-0.6249,-0.6342,-0.6342,-0.6342,0,-0.627,-0.6264,-0.6295,-0.6285,-0.6288,-0.6327,-0.631,-0.6318,-0.6332,-0.6333,-0.6351,-0.6349,-0.6361,-0.6342,-0.6328,-0.6331,-0.6326,-0.6343,-0.6283,-0.6277,-0.6272,-0.6251,-0.6243,-0.6339,-0.6339,-0.634,-0.634,0,-0.6215,-0.621,-0.6195,-0.6208,-0.621,-0.6196,-0.6224,-0.6222,-0.6242,-0.6258,-0.6244,-0.626,-0.6264,-0.6261,-0.6281,-0.6245,-0.6254,-0.6278,-0.6309,-0.6259,-0.624,-0.6233,-0.6335,-0.6336,-0.6337,-0.6337,0,0,-0.6125,-0.6154,-0.6148,-0.6153,-0.6173,-0.6169,-0.6158,-0.6162,-0.6158,-0.6167,-0.6157,-0.6154,-0.6176,-0.618,-0.62,-0.6187,-0.6141,-0.6212,-0.6213,-0.6197,-0.6099,-0.608,-0.6071,-0.6157,-0.6156,-0.6155,-0.6098,0,-0.6071,-0.6052,-0.6079,-0.6055,-0.6049,-0.6086,-0.6076,-0.6086,-0.6101,-0.6098,-0.6114,-0.6111,-0.6141,-0.6143,-0.6132,-0.6149,-0.6121,-0.6154,-0.6146,-0.6146,-0.6139,-0.6061,-0.6041,-0.5986,-0.6091,-0.609,-0.6089,0,-0.6005,-0.601,-0.5985,-0.6004,-0.6003,-0.5993,-0.5998,-0.5996,-0.6008,-0.6019,-0.6023,-0.6048,-0.6036,-0.6069,-0.6053,-0.6074,-0.6073,-0.608,-0.6079,-0.6077,-0.6112,-0.6056,-0.597,-0.5961,-0.6078,-0.6079,-0.608,0,-0.5939,-0.594,-0.5924,-0.5928,-0.5951,-0.5943,-0.5952,-0.5965,-0.5966,-0.597,-0.597,-0.5974,-0.5975,-0.5976,-0.6,-0.6022,-0.598,-0.6015,-0.5988,-0.5987,-0.5976,-0.5976,-0.5886,-0.5979,-0.5979,-0.5979,-0.5979,0,-0.5874,-0.5857,-0.5894,-0.5884,-0.5865,-0.5897,-0.5877,-0.589,-0.5901,-0.5893,-0.5926,-0.5918,-0.5952,-0.5947,-0.5966,-0.5949,-0.595,-0.5958,-0.5962,-0.5953,-0.5952,-0.5951,-0.5955,-0.5977,-0.5978,-0.5978,-0.5978,0,-0.5796,-0.5821,-0.5806,-0.5829,-0.5835,-0.5819,-0.5839,-0.583,-0.5847,-0.5837,-0.5836,-0.5863,-0.5859,-0.5884,-0.5885,-0.5898,-0.587,-0.5883,-0.5866,-0.5869,-0.5839,-0.5841,-0.5744,-0.5732,-0.5834,-0.5833,-0.5833,0,-0.5753,-0.574,-0.5761,-0.5759,-0.5766,-0.5762,-0.5762,-0.5792,-0.5791,-0.5803,-0.5792,-0.5792,-0.5792,-0.5784,-0.5803,-0.5803,-0.5815,-0.5781,-0.5815,-0.5806,-0.5811,-0.5811,-0.5809,-0.5773,-0.5772,-0.5771,-0.577,0,-0.5671,-0.5684,-0.5684,-0.5687,-0.5686,-0.569,-0.5697,-0.5693,-0.5725,-0.5722,-0.5718,-0.5719,-0.572,-0.5717,-0.5722,-0.573,-0.5754,-0.5759,-0.5753,-0.5742,-0.5732,-0.5735,-0.5844,-0.5761,-0.5762,-0.5763,-0.5763,-0.5763,-0.5608,-0.5597,-0.561,-0.5608,-0.5616,-0.5621,-0.5613,-0.563,-0.5627,-0.563,-0.5648,-0.5641,-0.5652,-0.566,-0.5667,-0.5661,-0.5677,-0.5668,-0.5665,-0.5661,-0.5655,-0.5735,-0.5662,-0.5662,-0.5662,-0.5663,-0.5663,0,-0.5526,-0.5536,-0.5534,-0.5542,-0.554,-0.5564,-0.5572,-0.5568,-0.5562,-0.557,-0.557,-0.5565,-0.5563,-0.5582,-0.5582,-0.5574,-0.5585,-0.5572,-0.5572,-0.5573,-0.5642,-0.5647,-0.5563,-0.5563,-0.5563,-0.5563,-0.5563,-0.5563,-0.5483,-0.5466,-0.548,-0.5467,-0.5478,-0.5471,-0.5473,-0.5477,-0.5484,-0.5478,-0.5476,-0.5489,-0.5501,-0.5502,-0.5501,-0.5506,-0.5504,-0.5487,-0.5496,-0.5559,-0.5569,-0.5578,-0.5582,-0.5487,-0.5487,-0.5427,-0.5427,-0.5426]}]]